Location: Stockholm
(59.3293°N, 18.0686°E)
Time: 12:04:33
(UTC+01:00)

N. Korean satellite - Visible Passes

Search period start: 18 December 2017 00:00
Search period end: 28 December 2017 00:00
Orbit: 461 x 513 km, 97.2° (Epoch: 17 December)

Date Brightness Start Highest point End Pass type
(mag) Time Alt. Az. Time Alt. Az. Time Alt. Az.
18 Dec 9.9 05:25:39 10° NE 05:27:38 14° E 05:29:35 10° ESE visible
18 Dec 6.7 06:58:00 10° NNE 07:01:46 87° ESE 07:05:27 10° SSW visible
18 Dec 7.8 16:10:20 10° ESE 16:13:22 24° ENE 16:16:26 10° N visible
18 Dec 7.3 17:42:55 10° S 17:46:38 59° W 17:50:23 10° NNW visible
19 Dec 7.5 06:34:28 10° NNE 06:38:08 52° E 06:41:44 10° S visible
19 Dec 8.2 15:47:35 10° E 15:50:01 17° NE 15:52:28 10° NNE visible
19 Dec 6.6 17:19:15 10° SSE 17:23:02 86° ENE 17:26:50 10° NNW visible
19 Dec 9.8 18:54:47 10° SW 18:57:05 15° W 18:59:24 10° NW visible
20 Dec 8.6 06:11:02 10° NNE 06:14:26 32° E 06:17:45 10° SSE visible
20 Dec 7.2 07:44:32 10° N 07:48:00 37° WNW 07:51:24 10° SW visible
20 Dec 6.7 16:55:48 10° SE 16:59:29 53° ENE 17:03:11 10° N visible
20 Dec 9.1 18:30:11 10° SSW 18:33:16 23° W 18:36:21 10° NW visible
21 Dec 9.4 05:47:47 10° NE 05:50:39 21° E 05:53:28 10° SE visible
21 Dec 6.7 07:20:50 10° N 07:24:30 58° WNW 07:28:06 10° SSW visible
21 Dec 7.3 16:32:33 10° SE 16:35:59 34° ENE 16:39:27 10° N visible
21 Dec 8.2 18:06:00 10° SSW 18:09:30 36° W 18:13:02 10° NNW visible
22 Dec 9.9 05:24:55 10° NE 05:26:47 13° E 05:28:39 10° ESE visible
22 Dec 6.6 06:57:12 10° NNE 07:00:56 86° ESE 07:04:35 10° SSW visible
22 Dec 7.8 16:09:32 10° ESE 16:12:33 23° ENE 16:15:36 10° N visible
22 Dec 7.2 17:42:06 10° S 17:45:49 59° WSW 17:49:33 10° NNW visible
23 Dec 7.5 06:33:39 10° NNE 06:37:17 51° E 06:40:50 10° S visible
23 Dec 8.2 15:46:46 10° E 15:49:12 17° NE 15:51:36 10° NNE visible
23 Dec 6.6 17:18:25 10° SSE 17:22:12 85° ENE 17:25:59 10° NNW visible
23 Dec 9.8 18:53:55 10° SW 18:56:15 16° W 18:58:34 10° NW visible
24 Dec 8.6 06:10:13 10° NNE 06:13:34 32° E 06:16:51 10° SSE visible
24 Dec 7.2 07:43:43 10° N 07:47:09 37° WNW 07:50:31 10° SW visible
24 Dec 6.8 16:54:58 10° SE 16:58:38 53° ENE 17:02:18 10° N visible
24 Dec 9.1 18:29:19 10° SSW 18:32:24 24° W 18:35:30 10° NW visible
25 Dec 9.4 05:46:58 10° NE 05:49:46 20° E 05:52:32 10° SE visible
25 Dec 6.6 07:20:00 10° N 07:23:39 59° WNW 07:27:11 10° SSW visible
25 Dec 7.3 16:31:42 10° SE 16:35:08 34° ENE 16:38:33 10° N visible
25 Dec 8.2 18:05:07 10° SSW 18:08:38 37° W 18:12:10 10° NNW visible
26 Dec 9.9 05:24:06 10° NE 05:25:54 13° E 05:27:40 10° ESE visible
26 Dec 6.6 06:56:21 10° NNE 07:00:03 85° ESE 07:03:39 10° SSW visible
26 Dec 7.8 16:08:41 10° ESE 16:11:41 23° ENE 16:14:42 10° N visible
26 Dec 7.2 17:41:13 10° S 17:44:57 60° WSW 17:48:40 10° NNW visible
27 Dec 7.5 06:32:47 10° NNE 06:36:23 50° E 06:39:53 10° S visible
27 Dec 8.2 15:45:55 10° E 15:48:18 16° NE 15:50:41 10° NNE visible
27 Dec 6.5 17:17:32 10° SSE 17:21:18 84° ENE 17:25:04 10° NNW visible
27 Dec 9.7 18:53:01 10° SW 18:55:20 16° W 18:57:40 10° NW visible
